x

Gulf Of Maine - 78 Nm East Of Portsmouth, Nh (44005) Wave Buoy

3:50am - Thu 23rd Oct 2014 All times are EDT. -4 hours from GMT.

  • Sig Wave height 14.4ft
  • Peak Period 8s
  • Average Period 7s
  • Wind
    34mph, 40mph gusts
  • Sea Temp 55°f
  • 空気 Temp 55°f
  • Sea Pressure 1006mb
  • Gulf Of Maine - 78 Nm East Of Portsmouth, Nh
  • Gulf Of Maine - 78 Nm East Of Portsmouth, Nh

More Historic Weather Station data

Upgrade to MSW Pro to gain access to the past 30 days of data for over 8000 Wavebouys and Weather Stations around the globe.

Join Pro

Comparision Forecast

View Surf forecast
   
Thu 10/23 3:50am 14.5ft 8s 7s 34 40 mph 1006mb 55f 55f
2:50am 15.5ft 8s 7s 34 43 mph 1006.4mb 55f 55f
1:50am 18ft 9s 8s 34 40 mph 1007.9mb 55f 56f
12:50am 16ft 9s 7s 36 45 mph 1008.7mb 55f 54f
Wed 10/22 11:50pm 18.5ft 9s 8s 36 43 mph 1009.6mb 55f 54f
10:50pm 20.5ft 10s 8s 38 49 mph 1010.4mb 55f 54f
9:50pm 20ft 10s 8s 38 47 mph 1011.1mb 55f 54f
8:50pm 19ft 11s 8s 38 47 mph 1010.8mb 55f 53f
7:50pm 19.5ft 11s 8s 38 49 mph 1011.5mb 55f 53f
6:50pm 20ft 10s 8s 40 49 mph 1012.2mb 55f 54f
5:50pm 18.5ft 10s 8s 40 49 mph 1012.5mb 55f 54f
4:50pm 21.5ft 10s 8s 38 49 mph 1012.3mb 55f 54f
3:50pm 18.5ft 10s 7s 40 49 mph 1011.9mb 55f 55f
2:50pm 16.5ft 10s 7s 36 47 mph 1012mb 55f 55f
1:50pm 15ft 8s 7s 36 45 mph 1011.6mb 55f 53f
12:50pm 16.5ft 8s 7s 38 45 mph 1012.2mb 55f 53f
11:50am 15.5ft 8s 7s 36 45 mph 1013.5mb 55f 54f
10:50am 13.5ft 8s 6s 36 43 mph 1014.1mb 55f 55f
9:50am 12.5ft 8s 6s 34 40 mph 1014.7mb 55f 55f
8:50am 12ft 8s 6s 34 40 mph 1014.7mb 55f 54f
7:50am 11.5ft 8s 6s 31 38 mph 1015.4mb 55f 54f
6:50am 11ft 8s 6s 31 38 mph 1015.2mb 56f 54f
5:50am 9.5ft 7s 6s 29 36 mph 1015.1mb 56f 55f
4:50am 6ft 6s 5s 29 34 mph 1015.1mb 56f 56f
3:50am 6ft 6s 5s 25 34 mph 1015mb 56f 56f
2:50am 6ft 6s 5s 22 27 mph 1015.1mb 56f 55f
1:50am 5ft 7s 5s 25 31 mph 1015.3mb 56f 56f
12:50am 5ft 6s 5s 18 22 mph 1015.6mb 56f 56f
Tue 10/21 11:50pm 6ft 6s 5s 18 22 mph 1015.4mb 56f 57f
10:50pm 6ft 6s 5s 18 22 mph 1015.3mb 56f 57f
9:50pm 5ft 6s 5s 25 31 mph 1014.6mb 56f 57f
8:50pm 4.5ft 6s 5s 20 22 mph 1014.4mb 56f 57f
7:50pm 4.5ft 6s 4s 20 25 mph 1014.2mb 56f 57f
6:50pm 4.5ft 6s 5s 18 20 mph 1014.6mb 55f 56f
5:50pm 5ft 7s 5s 18 20 mph 1014.6mb 56f 56f
4:50pm 5ft 7s 5s 18 22 mph 1014.6mb 56f 57f
3:50pm 3.5ft 6s 5s 18 20 mph 1014.8mb 56f 57f
2:50pm 3ft 5s 5s 11 13 mph 1015mb 56f 57f
1:50pm 2.5ft 5s 4s 13 16 mph 1014.9mb 56f 57f
12:50pm 2.5ft 5s 4s 18 20 mph 1015.2mb 56f 57f
11:50am 2.5ft 3s 4s 18 20 mph 1015.7mb 56f 57f
10:50am 2.5ft 6s 4s 16 18 mph 1016.6mb 55f 57f
9:50am 2.5ft 5s 4s 13 16 mph 1016.5mb 55f 57f
8:50am 2.5ft 6s 4s 13 16 mph 1016.6mb 55f 56f
7:50am 2.5ft 5s 5s 13 16 mph 1016.3mb 55f 56f
6:50am 3ft 5s 5s 11 13 mph 1015.9mb 55f 56f
5:50am 3.5ft 5s 5s 9 11 mph 1016.4mb 55f 56f
4:50am 3.5ft 6s 5s 7 9 mph 1016.2mb 55f 56f
3:50am 3.5ft 6s 5s 7 9 mph 1016.2mb 55f 56f
2:50am 3.5ft 6s 5s 11 13 mph 1016.4mb 55f 55f
1:50am 3.5ft 5s 4s 13 16 mph 1016.3mb 55f 55f
12:50am 3.5ft 10s 4s 16 20 mph 1016mb 55f 55f
Mon 10/20 11:50pm  -   -   -  16 20 mph 1015.7mb 55f 55f
10:50pm 3ft 4s 4s 16 18 mph 1015.4mb 55f 56f
9:50pm 3ft 5s 4s 13 18 mph 1015mb 55f 55f
8:50pm 3.5ft 5s 4s 13 18 mph 1014.8mb 55f 55f
7:50pm 3.5ft 5s 4s 16 18 mph 1014.7mb 55f 54f
6:50pm 4.5ft 6s 5s 18 25 mph 1014.6mb 55f 53f
5:50pm 4ft 5s 4s 22 25 mph 1014.2mb 55f 52f
4:50pm 4.5ft 6s 4s 20 25 mph 1013.9mb 56f 51f
3:50pm 4ft 5s 4s 20 25 mph 1013.9mb 56f 50f
2:50pm 3.5ft 4s 4s 20 25 mph 1013.8mb 56f 48f
1:50pm 3.5ft 11s 4s 20 22 mph 1014.1mb 56f 47f
12:50pm 3ft 11s 4s 16 22 mph 1014.4mb 56f 46f
11:50am 3ft 10s 4s 16 20 mph 1014.9mb 56f 46f
10:50am 3.5ft 11s 5s 13 18 mph 1015.1mb 56f 46f
9:50am 3.5ft 5s 5s 13 18 mph 1015.2mb 55f 46f
8:50am 4ft 6s 5s 13 20 mph 1014.7mb 55f 46f
7:50am 5ft 6s 5s 16 20 mph 1014.2mb 55f 46f
6:50am 5ft 6s 5s 18 22 mph 1013.2mb 55f 46f
5:50am 4.5ft 6s 5s 20 25 mph 1012.6mb 55f 47f
4:50am  -   -   -  20 25 mph 1012.2mb 55f 47f
3:50am  -   -   -  20 27 mph 1011.6mb 56f 47f
2:50am 5.5ft 6s 5s 25 29 mph 1011.1mb 56f 47f
1:50am 6ft 6s 5s 27 31 mph 1010.7mb 56f 47f
12:50am 5.5ft 5s  -  22 31 mph 1010.2mb 56f 48f
Sun 10/19 11:50pm 6ft 6s 5s 22 29 mph 1009.9mb 56f 48f
10:50pm 7.5ft 6s 5s 25 31 mph 1009.5mb 56f 48f
9:50pm 7ft 12s 5s 27 34 mph 1009.1mb 56f 49f
8:50pm 6ft 6s 5s 25 31 mph 1008.8mb 56f 49f
7:50pm 7ft 6s 5s 25 31 mph 1008.2mb 56f 49f
6:50pm 6ft 6s 5s 25 31 mph 1007.5mb 56f 50f
5:50pm 5ft 5s 5s 27 34 mph 1006.8mb 57f 51f
4:50pm 4.5ft 14s 5s 22 29 mph 1006.8mb 57f 52f
3:50pm  -   -   -  13 18 mph 1006.7mb 57f 50f
2:50pm 5ft 13s 5s 13 16 mph 1006.3mb 57f 49f
1:50pm 5ft 10s 5s 13 18 mph 1006.5mb 57f 48f
12:50pm 5.5ft 13s 6s 18 22 mph 1005.2mb 57f 48f
11:50am 6ft 12s 6s 18 22 mph 1006.1mb 57f 48f
10:50am 6.5ft 14s 6s 18 22 mph 1006.1mb 57f 49f
9:50am 6ft 14s 5s 20 27 mph 1005.7mb 57f 49f